Lid_Strength_Index
2 2 2 2 2 1 1 1 1 1 1 1 1 1 2 2 2 1 1 2 2 2 1 2 3 3 2 1 3 4 3 4 5 4 3 2 3 2 2 1 1 1 1
2 2 2 2 2 2 2 1 1 1 1 1 1 1 1 1 2 1 2 1 2 2 2 2 2 1 2 2 3 4 3 4 4 5 4 4 3 2 2 2 1 -0 1
2 3 3 2 3 2 2 2 2 2 1 1 1 1 1 1 1 2 1 1 2 2 2 2 2 2 2 2 4 3 3 3 3 4 4 3 3 2 3 3 2 2 1
3 3 3 3 2 2 2 2 1 1 2 2 1 1 1 1 1 1 1 1 1 2 2 2 2 2 2 2 4 3 3 3 4 4 4 4 4 3 3 4 3 2 1
3 3 4 2 2 2 2 2 1 1 1 1 1 1 1 1 1 1 2 2 2 2 2 1 2 3 4 3 3 3 4 4 4 4 4 4 4 4 4 3 3 2 2
3 3 3 2 2 2 2 2 2 2 2 2 2 2 2 1 4 7 5 2 2 2 2 2 2 6 6 7 7 6 3 4 4 4 4 4 4 4 4 3 4 4 5
3 3 2 3 2 3 3 2 3 3 3 3 3 2 2 1 5 6 7 4 2 2 2 2 3 3 5 5 9 9 7 5 4 3 4 4 4 3 4 4 4 5 4
3 2 2 2 3 3 3 3 3 3 3 3 4 3 3 3 5 7 7 4 2 2 2 2 3 5 5 5 5 4 4 4 4 3 3 3 3 2 3 2 3 3 3
3 3 2 2 2 3 3 4 3 3 3 4 4 4 4 4 6 6 6 3 2 2 2 2 3 3 9 10 4 4 5 6 9 9 8 9 10 9 5 3 3 3 4
3 3 2 2 2 2 2 3 4 4 4 3 4 4 5 5 6 6 7 3 3 2 2 2 7 4 11 10 3 3 4 5 5 5 5 6 6 5 8 3 3 4 4
3 3 3 3 2 2 2 2 4 5 5 4 5 5 5 4 4 7 8 4 2 3 3 3 3 10 11 10 6 2 3 3 5 4 4 3 3 3 2 3 2 3 4
4 4 4 4 4 4 4 4 5 6 6 5 5 6 5 4 5 6 9 10 5 2 3 3 5 12 12 10 6 11 10 6 3 4 4 3 3 2 3 2 2 2 2
6 6 5 5 5 5 5 5 5 6 7 6 6 6 5 3 2 7 10 11 9 3 3 7 13 14 13 10 11 11 8 3 4 4 4 4 3 1 2 3 2 2 2
8 7 6 6 6 6 5 6 6 7 7 6 6 7 5 3 2 5 6 7 10 8 10 10 10 9 8 9 7 7 3 3 3 4 3 3 2 3 3 3 3 3 2
7 6 6 5 5 6 6 6 7 7 6 6 6 5 4 3 3 5 5 4 5 7 7 6 5 5 6 5 4 3 3 3 3 3 3 3 2 3 4 2 3 3 4
7 6 6 6 7 7 6 8 9 8 8 8 7 4 2 5 9 11 11 11 12 10 5 5 5 4 4 4 3 4 2 4 3 3 2 2 2 2 3 3 3 3 3
6 4 5 5 6 6 6 6 6 7 8 8 9 9 9 11 13 12 12 11 11 8 4 4 4 4 3 3 3 3 4 3 3 3 4 2 2 2 3 3 3 4 3
4 7 4 4 4 4 4 4 4 5 4 5 11 9 12 12 12 11 11 9 5 5 4 4 4 4 3 3 4 3 3 3 3 3 4 3 2 3 3 3 3 3 3
5 4 3 3 3 4 3 4 4 4 6 7 8 10 12 12 11 11 9 4 4 4 4 4 3 3 2 3 2 2 3 3 3 3 4 3 2 3 4 3 4 9 8
6 8 5 3 4 4 4 4 4 4 4 5 6 8 7 6 4 4 3 3 3 3 3 3 2 2 2 2 2 3 4 3 3 4 3 2 2 3 3 3 3 6 6
7 3 8 3 3 3 4 4 4 4 4 6 6 6 11 4 4 3 3 3 3 2 2 2 2 2 2 2 2 3 3 2 3 4 2 2 3 3 3 2 3 4 4
6 3 3 3 3 3 3 4 4 4 4 5 5 8 12 2 3 3 4 4 4 2 1 2 2 2 2 2 2 2 2 3 3 3 2 3 2 3 2 2 2 3 3
5 3 3 3 3 6 3 4 4 3 3 3 3 3 4 4 5 6 8 8 7 7 6 5 5 4 4 5 4 2 2 2 2 2 2 2 3 2 2 3 3 3 4
3 3 3 3 3 3 4 4 4 6 4 5 5 6 7 8 9 9 10 10 10 10 9 9 8 8 8 7 7 7 5 3 1 1 2 2 2 3 4 3 3 3 6
3 3 3 3 3 3 3 4 5 6 6 7 8 9 10 10 11 12 12 11 12 12 12 11 11 10 10 9 9 9 14 13 6 9 4 5 6 6 6 7 6 6 6
3 3 3 3 3 4 6 7 7 8 8 9 10 10 11 12 12 13 13 13 13 13 14 13 13 13 12 13 13 15 14 14 11 12 7 7 7 8 7 8 8 8 8